GAOFEN 1-03

导读 | 星芒AI

高分一号03星(GAOFEN 1-03)是中国高分辨率对地观测系统的重要组成部分,于2019年9月发射。该卫星主要用于国土普查、农作物估产、环境监测等领域,具备高分辨率、多光谱成像能力,空间分辨率达0.8米。GAOFEN 1-03与高分一号卫星组网运行,提高了观测频率和数据获取能力,增强了中国在遥感应用方面的自主性和实时性。

基本信息
目录编号:
43260
目录名称:
GAOFEN 1-03
国际标识:
2018-031B
轨道中心:
EARTH
卫星名称:
GAOFEN 1-03
卫星全名:
--
卫星状态:
在轨 (已飞行2816 天)
发射日期:
2018-03-31 UTC
国别 :
中国 (CN)
星等 :
--
轨道信息
数据来源 国际轨道数据
星历时间: 2025-12-15T06:32:59+0800
20小时前
查看轨道信息
半长轴: 7018.716km
偏心率: 0.0001872
轨道倾角: 98.080°
近地点辐角 311.619°
升交点赤经 46.606°
平近点角 48.486°
近地点: 639.267km
远地点: 641.895km
周期: 97.532分钟
每日圈数: 14.764418
详细信息
使用方式:
暂无
2D轨道图
3D轨道图
轨道高度分析图
轨道倾角分析图
轨道综合分析图
查看轨道综合分析图